N1LJK-13 Weather Reports


time (UTC)temp
C
wind
direction
speed
KPH
gust
KPH
rain 1hr
cm
rain 24hr
cm
rain mn
cm
humidity
%
barometer
mb
20260505010532 8 220 0.0 1.6 0.00 0.00 0.00 98 1009.1
20260505002532 8 0 0.0 0.0 0.00 0.00 0.00 98 1008.7
20260505000532 9 73 1.6 3.2 0.00 0.00 0.00 98 1008.6
20260504234532 10 269 0.0 3.2 0.00 0.00 0.00 98 1008.4
20260504232532 11 227 3.2 4.8 0.00 0.00 0.00 98 1008.1
20260504230532 12 121 1.6 4.8 0.00 0.00 0.00 98 1007.8
20260504224532 13 209 3.2 4.8 0.00 0.00 0.00 98 1007.6
20260504222533 13 181 4.8 4.8 0.00 0.00 0.00 98 1007.6
20260504212533 16 221 4.8 6.4 0.00 0.00 0.00 98 1007.3
20260504210532 17 209 4.8 6.4 0.00 0.00 0.00 98 1007.3
20260504204532 17 214 4.8 6.4 0.00 0.00 0.00 98 1007.2
20260504202533 18 265 3.2 6.4 0.00 0.00 0.00 98 1007.3
20260504194532 19 70 3.2 6.4 0.00 0.00 0.00 98 1007.3
20260504192531 18 289 1.6 3.2 0.00 0.00 0.00 98 1007.5
20260504190531 15 285 0.0 3.2 0.00 0.00 0.00 98 1007.8
20260504182532 15 232 6.4 8.0 0.00 0.00 0.00 98 1007.7
20260504180531 15 225 4.8 8.0 0.00 0.00 0.00 98 1007.6
20260504174531 16 249 8.0 14.5 0.00 0.03 0.00 98 1007.3
20260504172531 17 235 9.7 16.1 0.00 0.03 0.00 98 1007.2
20260504170531 16 235 14.5 17.7 0.00 0.03 0.00 98 1007.3
20260504150531 17 241 8.0 9.7 0.00 0.18 0.00 98 1008.5
20260504140531 14 222 8.0 12.9 0.00 0.30 0.00 98 1009.5
20260504130531 15 251 4.8 8.0 0.00 0.30 0.00 98 1010.0
20260504110531 4 0 0.0 0.0 0.00 0.48 0.00 98 1010.4
20260504080531 0 0 0.0 1.6 0.00 0.61 0.00 98 1010.1
20260504050531 1 0 0.0 0.0 0.00 0.69 0.00 98 1009.6
20260504044531 1 0 0.0 0.0 0.00 0.69 0.00 98 1009.7
20260504042531 1 0 0.0 0.0 0.00 0.69 0.00 98 1009.6
20260504040531 2 0 0.0 0.0 0.00 0.69 0.00 98 1009.4
20260504032531 3 0 0.0 0.0 0.00 0.69 0.69 98 1009.2
20260504030531 3 4 0.0 1.6 0.00 0.69 0.69 98 1009.1
20260504024531 3 112 0.0 3.2 0.00 0.69 0.69 98 1008.9
20260504022531 5 229 1.6 4.8 0.00 0.69 0.69 98 1008.7
20260504020531 5 236 3.2 3.2 0.00 0.69 0.69 98 1008.5
20260504014531 5 195 3.2 6.4 0.00 0.69 0.69 98 1008.5
20260504012531 5 183 1.6 6.4 0.00 0.69 0.69 98 1008.2